Location: Czekan�w
(50.3488°N, 18.7344°E)
Time: 16:35:22
(UTC+00:00)

Cosmos 1656 Rocket - Pass Details

Date: 17 February 2020
Orbit: 794 x 848 km, 71.1° (Epoch: 07 April)

Event Time Altitude Azimuth Distance (km) Brightness Sun altitude
Rises 05:15:52 0° 326° (NNW) 3,404 6.4 -6.7°
Reaches altitude 10° 05:18:25 10° 320° (NW) 2,471 5.7 -6.3°
Maximum altitude 05:23:42 42° 252° (WSW) 1,198 4.2 -5.5°
Drops below altitude 10° 05:29:00 10° 183° (S) 2,467 6.3 -4.7°
Sets 05:31:33 0° 176° (S) 3,397 7.1 -4.3°
